BEIDOU-3 M3 (C27)

Last updated on Aug. 8, 2020, 5:33 a.m. UTC

1 43107U 18003A   20219.97654304 -.00000101  00000-0  00000-0 0  9992
2 43107  55.3703  15.8674 0004659  54.6935 244.6569  1.86232616 17499
UTC
Height (km)
Latitude
Longitude
Inclination
Orbital Period
UTC large
Height (km)
Speed (km/s)
/
Latitude / Longitude
Inclination (degrees)
Orbital Period (minutes)
Azimuth
Elevation
Range (km)
Doppler Factor
iOS Compass Heading
iOS Angle

Next 30 passes for location: Hong Kong

Rise time Rise Azimuth (degrees) Set time Set Azimuth (degrees) Duration Max altitude (degrees)

No matching passes for this satellites